| time (UTC) | temp C | wind direction | speed KPH | gust KPH | rain 1hr cm | rain 24hr cm | rain mn cm | humidity % | barometer mb |
| 20260503173007 | 12 | 197 | 0.0 | 6.4 | 0.00 | 0.10 | 0.05 | 88 | 1010.2 |
| 20260503171504 | 12 | 161 | 1.6 | 8.0 | 0.00 | 0.10 | 0.05 | 88 | 1010.2 |
| 20260503081504 | 10 | 87 | 3.2 | 17.7 | 0.00 | 0.23 | 0.05 | 97 | 1010.1 |
| 20260503071503 | 10 | 126 | 3.2 | 12.9 | 0.00 | 0.23 | 0.05 | 97 | 1009.9 |
| 20260503054504 | 10 | 81 | 4.8 | 16.1 | 0.00 | 0.23 | 0.05 | 97 | 1009.2 |
| 20260503053005 | 10 | 117 | 3.2 | 12.9 | 0.00 | 0.23 | 0.05 | 97 | 1009.1 |
| 20260503051504 | 10 | 79 | 3.2 | 14.5 | 0.00 | 0.23 | 0.05 | 97 | 1009.1 |
| 20260503050006 | 10 | 67 | 3.2 | 16.1 | 0.03 | 0.23 | 0.05 | 97 | 1009.1 |
| 20260503044504 | 10 | 113 | 3.2 | 14.5 | 0.05 | 0.23 | 0.05 | 97 | 1009.1 |
| 20260503043007 | 10 | 73 | 4.8 | 12.9 | 0.05 | 0.23 | 0.05 | 97 | 1009.2 |
| 20260503041504 | 10 | 120 | 3.2 | 12.9 | 0.05 | 0.23 | 0.05 | 97 | 1009.3 |
| 20260503040006 | 10 | 62 | 3.2 | 12.9 | 0.03 | 0.20 | 0.05 | 97 | 1009.3 |
| 20260503034504 | 10 | 111 | 6.4 | 19.3 | 0.00 | 0.18 | 0.03 | 97 | 1009.3 |
| 20260503031504 | 11 | 77 | 4.8 | 14.5 | 0.03 | 0.18 | 0.03 | 97 | 1009.3 |
| 20260503030006 | 11 | 73 | 3.2 | 12.9 | 0.03 | 0.18 | 0.03 | 97 | 1009.3 |
| 20260503024504 | 11 | 102 | 4.8 | 14.5 | 0.03 | 0.18 | 0.03 | 97 | 1009.2 |
| 20260503023006 | 11 | 77 | 4.8 | 14.5 | 0.00 | 0.15 | 0.00 | 97 | 1009.3 |
| 20260503021504 | 11 | 94 | 3.2 | 14.5 | 0.00 | 0.15 | 0.00 | 97 | 1009.4 |
| 20260503014504 | 11 | 68 | 4.8 | 14.5 | 0.00 | 0.15 | 0.00 | 96 | 1009.6 |
| 20260503011504 | 11 | 64 | 4.8 | 14.5 | 0.00 | 0.15 | 0.00 | 96 | 1009.8 |
| 20260503010005 | 11 | 73 | 1.6 | 8.0 | 0.00 | 0.15 | 0.00 | 96 | 1009.9 |
| 20260503004504 | 11 | 132 | 0.0 | 9.7 | 0.00 | 0.15 | 0.00 | 96 | 1010.0 |
| 20260503001503 | 11 | 125 | 0.0 | 6.4 | 0.00 | 0.15 | 0.00 | 96 | 1010.1 |
| 20260503000007 | 11 | 124 | 1.6 | 9.7 | 0.00 | 0.15 | 0.00 | 96 | 1010.2 |
| 20260502234504 | 11 | 134 | 1.6 | 8.0 | 0.00 | 0.15 | 0.00 | 96 | 1010.3 |
| 20260502233006 | 11 | 136 | 1.6 | 11.3 | 0.00 | 0.15 | 0.00 | 96 | 1010.3 |
| 20260502231504 | 11 | 149 | 3.2 | 9.7 | 0.00 | 0.15 | 0.00 | 96 | 1010.4 |
| 20260502230009 | 11 | 147 | 3.2 | 16.1 | 0.00 | 0.15 | 0.00 | 96 | 1010.4 |
| 20260502224506 | 11 | 143 | 3.2 | 16.1 | 0.00 | 0.15 | 0.15 | 96 | 1010.4 |
| 20260502223006 | 11 | 148 | 3.2 | 14.5 | 0.00 | 0.15 | 0.15 | 96 | 1010.5 |
| 20260502221504 | 11 | 146 | 4.8 | 16.1 | 0.00 | 0.15 | 0.15 | 96 | 1010.6 |
| 20260502220006 | 11 | 157 | 4.8 | 19.3 | 0.00 | 0.15 | 0.15 | 96 | 1010.7 |
| 20260502211504 | 11 | 148 | 6.4 | 20.9 | 0.00 | 0.15 | 0.15 | 96 | 1010.6 |
| 20260502210006 | 11 | 140 | 6.4 | 19.3 | 0.03 | 0.15 | 0.15 | 96 | 1010.6 |
| 20260502204504 | 11 | 145 | 6.4 | 17.7 | 0.03 | 0.15 | 0.15 | 96 | 1010.6 |
| 20260502203005 | 11 | 144 | 6.4 | 24.1 | 0.03 | 0.15 | 0.15 | 96 | 1010.6 |
| 20260502201504 | 11 | 141 | 6.4 | 22.5 | 0.03 | 0.15 | 0.15 | 96 | 1010.6 |
| 20260502200005 | 11 | 155 | 6.4 | 19.3 | 0.00 | 0.15 | 0.15 | 96 | 1010.6 |
| 20260502194504 | 11 | 166 | 6.4 | 17.7 | 0.00 | 0.15 | 0.15 | 96 | 1010.6 |
| 20260502193006 | 11 | 145 | 8.0 | 19.3 | 0.00 | 0.15 | 0.15 | 96 | 1010.6 |
| 20260502191504 | 11 | 149 | 4.8 | 22.5 | 0.00 | 0.15 | 0.15 | 96 | 1010.6 |
| 20260502190005 | 11 | 146 | 6.4 | 24.1 | 0.03 | 0.15 | 0.15 | 96 | 1010.7 |
| 20260502184504 | 11 | 144 | 6.4 | 14.5 | 0.03 | 0.15 | 0.15 | 96 | 1010.7 |
| 20260502183006 | 11 | 152 | 8.0 | 24.1 | 0.03 | 0.15 | 0.15 | 96 | 1010.7 |
| 20260502181504 | 11 | 143 | 6.4 | 16.1 | 0.03 | 0.15 | 0.15 | 96 | 1010.8 |